LUCH 5B (38977 NORAD) Tracking and Keplerian Element Data

This shows tracking and keplerian element data for the satellite.

Feedback or suggestion? Click here.




ElementValue
Catalog38977
NameLUCH 5B
Epoch Orbit2122
Epoch Day203.18590961
Epoch Year2018
RAAN71.9603
Inclination4.3385
Eccentricity0.0003278
Argument of Perigee343.6515
Mean Anonmoly294.9856
Mean Motion1.00272161
Decay Rate-1.48E-06
L11 38977U 12061A 18203.18590961 -.00000148 00000-0 00000+0 0 9990
L22 38977 4.3385 71.9603 0003278 343.6515 294.9856 1.00272161 21222

Live tracking and technical data element details for LUCH 5B (NORAD 38977). LUCH 5B can be tracked NOW for your location showing map with azimuth and elevation plus other details from your city location.

Track the satellite on the map from your city or location and see movement details for azimuth, elevation, latitude, longitude, range, height, and movement on the map or in text.







IsCatalogInMostPopularTable: catalog: 38977, numindb: 55
Update: records affected: 1



GetName: 38977 LUCH 5B

Hit Count: updated at: Mon, 23 Jul 2018 07:45:49 GMT